timestamp,wind_dir_avg,wind_spd_avg,wind_spd_max_dir,wind_spd_gust,battery_voltage,lat,long
2022-12-14 00:04:00+00:00,80.0,11.68,70.0,16.57,12.09,47.59359,-54.27349
2022-12-14 00:14:00+00:00,80.0,10.77,87.0,14.44,12.09,47.59359,-54.27349
2022-12-14 00:24:00+00:00,84.0,10.2,72.0,13.82,12.09,47.59359,-54.27349
2022-12-14 00:34:00+00:00,87.0,11.03,79.0,17.75,12.09,47.59359,-54.27349
2022-12-14 00:44:00+00:00,88.0,11.06,106.0,19.33,12.09,47.59359,-54.27349
2022-12-14 00:54:00+00:00,87.0,10.44,111.0,15.39,12.09,47.59359,-54.27349
2022-12-14 01:04:00+00:00,91.0,8.47,115.0,13.65,12.09,47.59359,-54.27349
2022-12-14 01:14:00+00:00,96.0,8.71,115.0,13.49,12.09,47.59359,-54.27349
2022-12-14 01:24:00+00:00,87.0,7.78,76.0,13.73,12.09,47.59359,-54.27349
2022-12-14 01:34:00+00:00,102.0,8.54,125.0,15.1,12.09,47.59359,-54.27349
2022-12-14 01:44:00+00:00,96.0,8.83,114.0,13.82,12.09,47.59359,-54.27349
2022-12-14 01:54:00+00:00,95.0,8.67,95.0,14.09,12.09,47.59359,-54.27349
2022-12-14 02:04:00+00:00,97.0,7.23,117.0,14.84,12.09,47.59359,-54.27349
2022-12-14 02:14:01+00:00,93.0,7.45,113.0,13.85,12.09,47.59359,-54.27349
2022-12-14 02:24:01+00:00,96.0,7.81,102.0,14.27,12.09,47.59359,-54.27349
2022-12-14 02:34:01+00:00,86.0,5.49,105.0,13.22,12.09,47.59359,-54.27349
2022-12-14 02:44:01+00:00,94.0,5.39,85.0,12.25,12.09,47.59359,-54.27349
2022-12-14 02:54:01+00:00,98.0,6.17,104.0,14.42,12.09,47.59359,-54.27349
2022-12-14 03:04:01+00:00,96.0,5.62,97.0,13.8,12.09,47.59359,-54.27349
2022-12-14 03:14:00+00:00,100.0,6.68,95.0,14.02,12.09,47.59359,-54.27349
2022-12-14 03:24:00+00:00,99.0,6.22,124.0,15.45,12.09,47.59359,-54.27349
2022-12-14 03:34:00+00:00,94.0,7.32,107.0,14.08,12.09,47.59359,-54.27349
2022-12-14 03:44:00+00:00,90.0,5.84,98.0,12.87,12.09,47.59359,-54.27349
2022-12-14 03:54:00+00:00,92.0,6.69,99.0,13.72,12.09,47.59359,-54.27349
2022-12-14 04:04:00+00:00,88.0,6.48,86.0,13.7,12.09,47.59359,-54.27349
2022-12-14 04:14:00+00:00,88.0,5.1,103.0,14.46,12.09,47.59359,-54.27349
2022-12-14 04:24:00+00:00,99.0,3.73,88.0,9.55,12.09,47.59359,-54.27349
2022-12-14 04:34:00+00:00,76.0,4.2,66.0,8.69,12.09,47.59359,-54.27349
2022-12-14 04:44:00+00:00,83.0,4.35,80.0,13.5,12.09,47.59359,-54.27349
2022-12-14 04:54:00+00:00,84.0,5.18,86.0,12.83,12.09,47.59359,-54.27349
2022-12-14 05:04:00+00:00,107.0,6.29,108.0,14.14,12.09,47.59359,-54.27349
2022-12-14 05:14:00+00:00,99.0,6.26,92.0,11.97,12.09,47.59359,-54.27349
2022-12-14 05:24:00+00:00,96.0,5.42,79.0,11.56,12.09,47.59359,-54.27349
2022-12-14 05:34:00+00:00,90.0,5.01,93.0,8.43,12.09,47.59359,-54.27349
2022-12-14 05:44:00+00:00,106.0,4.83,111.0,9.65,12.09,47.59359,-54.27349
2022-12-14 05:54:00+00:00,99.0,5.39,100.0,12.03,12.09,47.59359,-54.27349
2022-12-14 06:04:00+00:00,112.0,5.67,127.0,10.48,12.09,47.59359,-54.27349
2022-12-14 06:14:00+00:00,93.0,4.7,117.0,10.94,12.09,47.59359,-54.27349
2022-12-14 06:24:00+00:00,99.0,6.51,81.0,13.41,12.09,47.59359,-54.27349
2022-12-14 06:34:00+00:00,92.0,4.24,126.0,8.52,12.09,47.59359,-54.27349
2022-12-14 06:44:00+00:00,93.0,3.9,102.0,8.53,12.09,47.59359,-54.27349
2022-12-14 06:54:00+00:00,102.0,4.01,84.0,8.75,12.09,47.59359,-54.27349
2022-12-14 07:04:00+00:00,103.0,3.89,109.0,6.2,12.09,47.59359,-54.27349
2022-12-14 07:14:01+00:00,94.0,3.7,121.0,8.11,12.09,47.59359,-54.27349
2022-12-14 07:24:01+00:00,125.0,5.67,126.0,9.23,12.09,47.59359,-54.27349
2022-12-14 07:34:01+00:00,128.0,7.12,133.0,10.3,12.09,47.59359,-54.27349
2022-12-14 07:44:01+00:00,122.0,4.04,130.0,6.82,12.09,47.59359,-54.27349
2022-12-14 07:54:01+00:00,128.0,6.61,119.0,11.84,12.09,47.59359,-54.27349
2022-12-14 08:04:01+00:00,118.0,7.16,132.0,10.52,12.09,47.59359,-54.27349
2022-12-14 08:14:01+00:00,117.0,4.95,125.0,8.97,12.09,47.59359,-54.27349
2022-12-14 08:24:01+00:00,123.0,7.98,124.0,10.93,12.09,47.59359,-54.27349
2022-12-14 08:34:01+00:00,126.0,4.52,130.0,10.55,12.09,47.59359,-54.27349
2022-12-14 08:44:01+00:00,140.0,4.13,83.0,6.21,12.09,47.59359,-54.27349
2022-12-14 08:54:01+00:00,104.0,3.77,109.0,6.89,12.09,47.59359,-54.27349
2022-12-14 09:04:01+00:00,103.0,4.43,114.0,7.01,12.09,47.59359,-54.27349
2022-12-14 09:14:00+00:00,106.0,4.07,87.0,8.06,12.09,47.59359,-54.27349
2022-12-14 09:24:00+00:00,124.0,4.06,131.0,8.63,12.09,47.59359,-54.27349
2022-12-14 09:34:00+00:00,120.0,4.43,112.0,7.27,12.09,47.59359,-54.27349
2022-12-14 09:44:00+00:00,128.0,4.69,121.0,7.77,12.09,47.59359,-54.27349
2022-12-14 09:54:00+00:00,131.0,3.88,113.0,6.5,12.09,47.59359,-54.27349
2022-12-14 10:04:00+00:00,141.0,3.96,151.0,5.53,12.09,47.59359,-54.27349
2022-12-14 10:14:00+00:00,102.0,4.91,124.0,7.5,12.09,47.59359,-54.27349
2022-12-14 10:24:00+00:00,94.0,4.82,113.0,6.92,12.09,47.59359,-54.27349
2022-12-14 10:34:00+00:00,100.0,4.28,105.0,6.69,12.09,47.59359,-54.27349
2022-12-14 10:44:00+00:00,114.0,2.8,155.0,5.26,12.09,47.59359,-54.27349
2022-12-14 10:54:00+00:00,110.0,4.94,115.0,7.04,12.09,47.59359,-54.27349
2022-12-14 11:04:00+00:00,127.0,4.21,138.0,5.91,12.09,47.59359,-54.27349
2022-12-14 11:14:00+00:00,123.0,,,,,47.59359,-54.27349
2022-12-14 11:24:00+00:00,100.0,,,,,47.59359,-54.27349
2022-12-14 11:34:00+00:00,73.0,,,,,47.59359,-54.27349
2022-12-14 11:44:00+00:00,96.0,,,,,47.59359,-54.27349
2022-12-14 11:54:00+00:00,101.0,,,,,47.59359,-54.27349
2022-12-14 12:04:00+00:00,77.0,,,,,47.59359,-54.27349
2022-12-14 12:14:00+00:00,98.0,4.25,138.0,7.81,12.09,47.59359,-54.27349
2022-12-14 12:24:00+00:00,91.0,4.14,92.0,7.09,12.09,47.59359,-54.27349
2022-12-14 12:34:00+00:00,78.0,5.32,74.0,7.22,12.09,47.59359,-54.27349
2022-12-14 12:44:00+00:00,67.0,4.15,66.0,4.64,12.09,47.59359,-54.27349
2022-12-14 12:54:00+00:00,62.0,4.64,71.0,7.26,12.09,47.59359,-54.27349
2022-12-14 13:04:00+00:00,36.0,3.43,55.0,5.24,12.09,47.59359,-54.27349
2022-12-14 13:14:00+00:00,42.0,4.57,45.0,5.77,12.17,47.59359,-54.27349
2022-12-14 13:24:00+00:00,44.0,6.15,48.0,7.08,12.17,47.59359,-54.27349
2022-12-14 13:34:00+00:00,55.0,5.28,55.0,6.18,12.17,47.59359,-54.27349
2022-12-14 13:44:00+00:00,53.0,6.89,54.0,7.62,12.17,47.59359,-54.27349
2022-12-14 13:54:00+00:00,58.0,7.06,59.0,8.08,12.17,47.59359,-54.27349
2022-12-14 14:04:00+00:00,48.0,7.11,47.0,7.5,12.17,47.59359,-54.27349
2022-12-14 14:14:00+00:00,36.0,6.62,35.0,7.51,12.49,47.59359,-54.27349
2022-12-14 14:24:00+00:00,38.0,6.06,44.0,6.66,12.49,47.59359,-54.27349
2022-12-14 14:34:00+00:00,36.0,5.65,36.0,6.18,12.49,47.59359,-54.27349
2022-12-14 14:44:00+00:00,45.0,5.85,42.0,6.6,12.49,47.59359,-54.27349
2022-12-14 14:54:00+00:00,41.0,5.31,45.0,6.08,12.49,47.59359,-54.27349
2022-12-14 15:04:00+00:00,49.0,6.42,50.0,7.34,12.49,47.59359,-54.27349
2022-12-14 15:14:00+00:00,54.0,7.21,51.0,8.04,12.65,47.59359,-54.27349
2022-12-14 15:24:00+00:00,53.0,7.06,50.0,7.69,12.65,47.59359,-54.27349
2022-12-14 15:34:00+00:00,50.0,6.3,47.0,7.09,12.65,47.59359,-54.27349
2022-12-14 15:44:00+00:00,52.0,6.05,47.0,7.7,12.65,47.59359,-54.27349
2022-12-14 15:54:00+00:00,47.0,6.81,45.0,7.51,12.65,47.59359,-54.27349
2022-12-14 16:04:00+00:00,49.0,6.6,49.0,7.42,12.65,47.59359,-54.27349
2022-12-14 16:14:00+00:00,46.0,6.54,51.0,7.13,13.37,47.59359,-54.27349
2022-12-14 16:24:00+00:00,44.0,6.07,49.0,7.02,13.37,47.59359,-54.27349
2022-12-14 16:34:00+00:00,44.0,6.15,44.0,6.66,13.37,47.59359,-54.27349
2022-12-14 16:44:00+00:00,46.0,5.16,47.0,5.8,13.37,47.59359,-54.27349
2022-12-14 16:54:00+00:00,44.0,5.74,43.0,6.38,13.37,47.59359,-54.27349
2022-12-14 17:04:00+00:00,37.0,5.16,37.0,5.81,13.37,47.59359,-54.27349
2022-12-14 17:14:01+00:00,37.0,5.82,37.0,6.2,12.89,47.59359,-54.27349
2022-12-14 17:24:01+00:00,49.0,5.59,47.0,6.4,12.89,47.59359,-54.27349
2022-12-14 17:34:01+00:00,49.0,5.17,50.0,5.93,12.89,47.59359,-54.27349
2022-12-14 17:44:01+00:00,55.0,5.47,56.0,6.06,12.89,47.59359,-54.27349
2022-12-14 17:54:01+00:00,49.0,5.16,51.0,5.81,12.89,47.59359,-54.27349
2022-12-14 18:04:01+00:00,47.0,4.43,52.0,4.83,12.89,47.59359,-54.27349
2022-12-14 18:14:00+00:00,50.0,4.09,47.0,4.79,12.89,47.59359,-54.27349
2022-12-14 18:24:00+00:00,47.0,4.33,52.0,5.05,12.89,47.59359,-54.27349
2022-12-14 18:34:00+00:00,45.0,4.78,31.0,5.77,12.89,47.59359,-54.27349
2022-12-14 18:44:00+00:00,44.0,4.89,44.0,5.45,12.89,47.59359,-54.27349
2022-12-14 18:54:00+00:00,47.0,4.16,49.0,4.58,12.89,47.59359,-54.27349
2022-12-14 19:04:00+00:00,47.0,5.15,47.0,5.7,12.89,47.59359,-54.27349
2022-12-14 19:14:01+00:00,49.0,5.06,47.0,5.58,12.57,47.59359,-54.27349
2022-12-14 19:24:01+00:00,47.0,5.11,51.0,5.79,12.57,47.59359,-54.27349
2022-12-14 19:34:01+00:00,32.0,5.31,32.0,6.02,12.57,47.59359,-54.27349
2022-12-14 19:44:01+00:00,44.0,5.98,41.0,7.1,12.57,47.59359,-54.27349
2022-12-14 19:54:01+00:00,51.0,5.23,53.0,6.14,12.57,47.59359,-54.27349
2022-12-14 20:04:01+00:00,52.0,6.15,52.0,6.95,12.57,47.59359,-54.27349
2022-12-14 20:14:00+00:00,39.0,6.71,42.0,7.62,12.41,47.59359,-54.27349
2022-12-14 20:24:00+00:00,45.0,7.2,47.0,8.05,12.41,47.59359,-54.27349
2022-12-14 20:34:00+00:00,46.0,7.41,47.0,8.49,12.41,47.59359,-54.27349
2022-12-14 20:44:00+00:00,41.0,7.85,44.0,8.67,12.41,47.59359,-54.27349
2022-12-14 20:54:00+00:00,40.0,8.07,41.0,8.61,12.41,47.59359,-54.27349
2022-12-14 21:04:00+00:00,45.0,8.62,45.0,9.53,12.41,47.59359,-54.27349
2022-12-14 21:14:00+00:00,52.0,8.32,49.0,10.06,12.41,47.59359,-54.27349
2022-12-14 21:24:00+00:00,40.0,9.57,45.0,10.47,12.41,47.59359,-54.27349
2022-12-14 21:34:00+00:00,51.0,8.84,49.0,9.89,12.41,47.59359,-54.27349
2022-12-14 21:44:00+00:00,51.0,8.21,51.0,9.03,12.41,47.59359,-54.27349
2022-12-14 21:54:00+00:00,52.0,8.17,53.0,8.96,12.41,47.59359,-54.27349
2022-12-14 22:04:00+00:00,51.0,8.03,47.0,9.4,12.41,47.59359,-54.27349
2022-12-14 22:14:01+00:00,59.0,6.92,59.0,7.65,12.33,47.59359,-54.27349
2022-12-14 22:24:01+00:00,52.0,7.7,49.0,8.66,12.33,47.59359,-54.27349
2022-12-14 22:34:01+00:00,59.0,7.08,55.0,7.87,12.33,47.59359,-54.27349
2022-12-14 22:44:01+00:00,69.0,5.49,71.0,6.73,12.33,47.59359,-54.27349
2022-12-14 22:54:01+00:00,69.0,5.43,70.0,6.58,12.33,47.59359,-54.27349
2022-12-14 23:04:01+00:00,70.0,6.26,65.0,7.38,12.33,47.59359,-54.27349
2022-12-14 23:14:01+00:00,74.0,6.49,73.0,8.4,12.33,47.59359,-54.27349
2022-12-14 23:24:01+00:00,79.0,4.89,69.0,6.3,12.33,47.59359,-54.27349
2022-12-14 23:34:01+00:00,67.0,6.34,61.0,6.81,12.33,47.59359,-54.27349
2022-12-14 23:44:01+00:00,75.0,6.82,72.0,7.92,12.33,47.59359,-54.27349
2022-12-14 23:54:01+00:00,80.0,5.63,66.0,7.42,12.33,47.59359,-54.27349
